CAPE
nan 0 2 2 2 1 3 4 3 3 3 4 5 5 4 4 5 5 0 nan nan nan nan nan nan nan nan nan nan nan nan 1 1 1 2 2 2 2 3 2 2 1 1 0 0 0 0 0 0 2 3 5 3 3 1 0 0 0 1 3 3 4 7 8 8 12 14 15 16 16 14 12 16 16 20 27 33 33 40 43 43 42 44 39 39 40
nan 1 2 2 2 2 2 4 4 4 2 1 3 3 3 3 3 3 4 1 1 nan nan nan nan nan nan nan nan nan nan 0 0 0 0 0 1 1 0 0 0 0 nan nan nan nan 0 1 1 3 5 5 2 2 0 0 0 0 0 0 0 1 2 3 3 4 7 7 9 9 8 7 7 7 11 17 26 26 35 48 48 49 48 50 50 49
0 1 2 2 2 2 2 2 4 4 2 1 2 2 3 2 2 2 2 1 1 2 nan nan nan 0 3 0 nan nan nan nan 0 0 0 nan 0 0 nan nan nan nan nan nan nan 0 1 3 3 5 5 2 0 0 nan nan nan nan nan 0 0 0 1 2 2 3 4 5 7 7 6 9 9 9 12 18 26 26 40 49 49 51 53 52 52 57
nan nan 1 2 2 2 2 1 2 2 2 1 2 2 2 1 0 0 0 nan nan 0 nan nan nan nan 2 0 nan nan nan nan nan nan 0 0 0 0 0 0 0 0 0 1 1 2 3 5 5 6 4 0 nan nan nan nan nan nan 0 0 0 1 2 3 3 6 9 9 12 12 13 15 17 17 19 23 31 31 38 44 44 48 47 51 51 53
nan nan 1 1 1 0 2 1 0 0 1 1 1 1 0 0 0 0 nan nan nan nan nan nan nan nan nan nan nan nan nan nan nan nan nan nan 1 1 2 2 2 3 4 5 5 6 7 6 6 4 1 0 0 0 0 0 0 0 0 0 0 1 2 4 4 7 9 12 15 15 15 17 21 21 25 29 32 32 34 34 34 35 37 40 40 43
nan nan 1 0 0 0 2 1 1 1 0 0 nan nan nan nan nan nan nan nan nan nan nan nan nan nan nan nan nan nan nan nan nan nan nan nan nan nan 0 1 1 3 5 6 6 7 5 2 2 1 0 nan nan nan nan nan nan nan nan nan nan nan 0 0 0 2 4 7 10 10 13 15 20 20 24 27 30 30 32 33 33 33 34 33 33 34
nan nan 0 nan nan 0 1 1 nan nan nan nan nan nan nan nan nan nan nan nan nan nan nan nan nan nan nan nan nan nan nan nan nan nan nan nan nan nan nan nan nan nan 0 1 1 0 nan nan nan nan nan nan nan nan nan nan nan nan nan nan nan nan nan nan nan nan 0 2 4 4 6 9 13 13 16 19 23 23 27 36 36 34 35 31 31 32
nan nan nan nan nan nan nan nan nan nan nan nan nan nan nan nan nan nan nan nan nan nan nan nan nan nan nan nan nan nan nan nan nan nan nan nan nan nan nan nan nan nan nan nan nan nan nan nan nan nan nan nan nan nan nan nan nan nan nan nan nan nan nan nan nan nan nan nan nan nan 1 4 7 7 9 11 13 13 16 23 23 29 34 36 36 38
nan nan nan nan nan nan nan nan nan nan nan nan nan nan nan nan nan nan nan nan nan nan nan nan nan nan nan nan nan nan nan nan nan nan nan nan nan nan nan nan nan nan nan nan nan nan nan nan nan nan nan nan nan nan nan nan nan nan nan nan nan nan nan nan nan nan nan nan nan nan 0 3 8 8 11 13 15 15 17 21 21 29 35 39 39 42
nan nan nan nan nan nan nan nan nan nan nan nan nan nan nan nan nan nan nan nan nan nan nan nan nan nan nan nan nan nan nan nan nan nan nan nan nan nan nan nan nan nan nan nan nan nan nan nan nan nan nan nan nan nan nan nan nan nan nan nan nan nan nan nan nan nan nan nan nan nan 0 1 4 4 9 13 16 16 20 23 23 29 37 43 43 46
nan nan nan nan nan nan nan nan nan nan nan nan nan nan nan nan nan nan nan nan nan nan nan nan nan nan nan nan nan nan nan nan nan nan nan nan nan nan nan nan nan nan nan nan nan nan nan nan nan nan nan nan nan nan nan nan nan nan nan nan nan nan nan nan nan nan nan nan nan nan 0 0 2 2 5 8 13 13 20 23 23 28 35 45 45 49
nan nan nan nan nan nan nan nan nan nan nan nan nan nan nan nan nan nan nan nan nan nan nan nan nan nan nan nan nan nan nan nan nan nan nan nan nan nan nan nan nan nan nan nan nan nan nan nan nan nan nan nan nan nan nan nan nan nan nan nan nan nan nan nan nan nan nan nan nan nan nan 0 1 1 3 5 9 9 14 18 18 24 30 37 37 45
nan nan nan nan nan nan nan nan nan nan nan nan nan nan nan nan nan nan nan nan nan nan nan nan nan nan nan nan nan nan nan nan nan nan nan nan nan nan nan nan nan nan nan nan nan nan nan nan nan nan nan nan nan nan nan nan nan nan nan nan nan nan nan nan nan nan nan nan nan nan nan 0 0 0 2 3 6 6 9 12 12 16 23 30 30 39
nan nan nan nan nan nan nan nan nan nan nan nan nan nan nan nan nan nan nan nan nan nan nan nan nan nan nan nan nan nan nan nan nan nan nan nan nan nan nan nan nan nan nan nan nan nan nan nan nan nan nan nan nan nan nan nan nan nan nan nan nan nan nan nan nan nan 0 0 0 0 1 2 3 3 4 4 7 7 8 9 9 13 18 23 23 29
nan nan nan nan nan nan nan nan nan nan nan nan nan nan nan nan nan nan nan nan nan nan nan nan nan nan nan nan nan nan nan nan nan nan nan nan nan nan nan nan nan nan nan nan nan nan nan nan nan nan nan nan nan nan nan nan nan nan nan nan nan 0 1 2 2 2 3 3 3 3 4 5 7 7 9 9 12 12 11 12 12 16 17 20 20 22
nan nan nan nan nan nan nan nan nan nan nan nan nan nan nan nan nan nan nan nan nan nan nan nan nan nan nan nan nan nan nan nan nan nan nan nan nan nan nan nan nan nan nan nan nan nan nan nan nan nan nan nan nan nan nan nan nan nan nan 0 0 1 2 3 3 5 5 5 6 6 9 10 12 12 15 17 19 19 17 20 20 22 22 22 22 24
nan nan nan nan nan nan nan nan nan nan nan nan nan nan nan nan nan nan nan nan nan nan nan nan nan nan nan nan nan nan nan nan nan nan nan nan nan nan nan nan nan nan nan nan nan nan nan nan nan nan nan nan nan nan nan nan nan nan 0 1 1 2 3 5 5 6 7 9 10 10 12 13 16 16 20 24 26 26 26 28 28 30 29 32 32 30
nan nan nan nan nan nan nan nan nan nan nan nan nan nan nan nan nan nan nan nan nan nan nan nan nan nan nan nan nan nan nan nan nan nan nan nan nan nan nan nan nan nan nan nan nan nan nan nan nan nan nan nan nan nan nan nan nan nan 1 2 2 3 4 5 5 6 7 10 13 13 15 15 17 17 20 25 27 27 31 34 34 38 39 41 41 39
nan nan nan nan nan nan nan nan nan nan nan nan nan nan nan nan nan nan nan nan nan nan nan nan nan nan nan nan nan nan nan nan nan nan nan nan nan nan nan nan nan nan nan nan nan nan nan nan nan nan nan nan nan nan nan 0 0 1 2 3 3 3 4 5 5 6 8 9 12 12 13 15 17 17 18 21 24 24 28 34 34 39 42 46 46 45
nan nan nan nan nan nan nan nan nan nan nan nan nan nan nan nan nan nan nan nan nan nan nan nan nan nan nan nan nan nan nan nan nan nan nan nan nan nan nan nan nan nan nan nan nan nan nan nan nan nan nan nan nan nan 0 1 1 1 3 3 3 4 5 5 5 6 7 8 9 9 10 11 14 14 16 18 21 21 24 29 29 33 38 42 42 46
nan nan nan nan nan nan nan nan nan nan nan nan nan nan nan nan nan nan nan nan nan nan nan nan nan nan nan nan nan nan nan nan nan nan nan nan nan nan nan nan nan nan nan nan nan nan nan nan nan nan nan nan nan nan nan 0 0 1 2 2 2 4 4 4 4 5 5 6 7 7 7 9 9 9 12 14 15 15 18 22 22 25 29 32 32 37
nan nan nan nan nan nan nan nan nan nan nan nan nan nan nan nan nan nan nan nan nan nan nan nan nan nan nan nan nan nan nan nan nan nan nan nan nan nan nan nan nan nan nan nan nan nan nan nan nan nan nan nan nan nan nan nan nan 0 1 2 2 3 4 5 5 7 7 9 9 9 9 11 10 10 13 12 12 12 14 19 19 22 23 27 27 28
nan nan nan nan nan nan nan nan nan nan nan nan nan nan nan nan nan nan nan nan nan nan nan nan nan nan nan nan nan nan nan nan nan nan nan nan nan nan nan nan nan nan nan nan nan nan nan nan nan nan nan nan nan nan nan nan nan nan 0 2 2 4 5 8 8 10 12 13 14 14 16 18 16 16 17 17 18 18 19 22 22 23 27 30 30 30
nan nan nan nan nan nan nan nan nan nan nan nan nan nan nan nan nan nan nan nan nan nan nan nan nan nan nan nan nan nan nan nan nan nan nan nan nan nan nan nan nan nan nan nan nan nan nan nan nan nan nan nan nan nan nan nan nan nan nan 2 2 3 5 6 6 8 10 11 12 12 13 17 19 19 21 22 20 20 24 24 24 24 29 30 30 31
nan nan nan nan nan nan nan nan nan nan nan nan nan nan 1 3 4 4 1 0 0 nan nan nan nan nan nan nan nan nan nan nan nan nan nan nan nan nan nan nan nan nan nan nan nan nan nan nan nan nan nan nan nan nan nan nan nan nan nan 1 1 1 2 3 3 4 4 5 6 6 7 8 11 11 13 15 16 16 16 15 15 17 17 18 18 21
nan nan nan nan nan nan nan nan nan nan nan nan 1 1 5 7 5 5 2 2 2 1 0 nan nan nan nan nan nan nan nan nan nan nan nan nan nan nan nan nan nan nan nan nan nan nan nan nan nan nan nan nan nan nan nan nan nan nan nan nan nan 0 0 0 0 1 1 2 3 3 5 7 8 8 9 9 11 11 12 13 13 13 14 13 13 13
nan nan nan nan nan nan nan nan 0 0 2 4 4 4 3 1 1 1 0 nan nan 0 nan nan nan nan nan nan nan nan nan nan nan nan nan nan nan nan nan nan nan nan nan nan nan nan nan nan nan nan nan nan nan nan nan nan nan nan nan nan nan nan nan nan nan 0 0 1 1 1 3 5 7 7 8 9 8 8 9 9 9 10 10 10 10 11
nan nan nan nan nan nan nan 0 2 2 5 7 10 10 6 2 0 0 nan nan nan nan nan nan nan nan nan nan nan nan nan nan nan nan nan nan nan nan nan nan nan nan nan nan nan nan nan nan nan nan nan nan nan nan nan nan nan nan nan nan nan 0 0 0 0 0 nan 0 0 0 1 3 5 5 7 9 8 8 9 9 9 9 8 5 5 0
nan nan nan nan nan nan nan 0 3 3 5 7 10 10 7 1 nan nan nan nan nan nan nan nan nan nan nan nan nan nan nan nan nan nan nan nan nan nan nan nan nan nan nan nan nan nan nan nan nan nan nan nan nan nan nan nan nan nan nan nan nan 0 0 0 0 0 0 0 0 0 0 1 3 3 5 7 9 9 9 9 9 9 7 2 2 nan
0 nan nan nan nan nan 0 nan 1 1 4 5 8 8 4 nan nan nan nan nan nan nan nan nan nan nan nan nan nan nan nan nan nan nan nan nan nan nan nan nan nan nan nan nan nan nan nan nan nan nan nan nan nan nan nan nan nan nan nan nan nan nan nan 0 0 0 0 0 0 0 0 0 1 1 3 5 7 7 9 9 9 7 2 nan nan nan
0 1 nan nan nan nan nan nan nan nan 2 3 3 3 0 nan nan nan nan nan nan nan nan nan nan nan nan nan nan nan nan nan nan nan nan nan nan nan nan nan nan nan nan nan nan nan nan nan nan nan nan nan nan nan nan nan nan nan nan nan nan nan nan nan nan 0 0 0 0 0 0 0 1 1 1 2 4 4 5 7 7 5 nan nan nan nan
nan nan nan nan nan nan nan nan nan nan nan nan nan nan nan nan nan nan nan nan nan nan nan nan nan nan nan nan nan nan nan nan nan nan nan nan nan nan nan nan nan nan nan nan nan nan nan nan nan nan nan nan nan nan nan nan nan nan nan nan nan nan nan nan nan nan nan 0 1 1 1 1 1 1 1 1 1 1 2 3 3 3 nan nan nan nan
nan nan nan nan nan nan nan nan nan nan nan nan nan nan nan nan nan nan nan nan nan nan nan nan nan nan nan nan nan nan nan nan nan nan nan nan nan nan nan nan nan nan nan nan nan nan nan nan nan nan nan nan nan nan nan nan nan nan nan nan nan nan nan nan nan nan nan nan nan nan 0 0 1 1 1 1 2 2 3 3 3 4 2 nan nan nan
nan nan nan nan nan nan nan nan nan nan nan nan nan nan nan nan nan nan nan nan nan nan nan nan nan nan nan nan nan nan nan nan nan nan nan nan nan nan nan nan nan nan nan nan nan nan nan nan nan nan nan nan nan nan nan nan nan nan nan nan nan nan nan nan nan nan nan nan nan nan nan nan 0 0 0 1 2 2 3 3 3 5 5 nan nan nan
nan nan nan nan nan nan nan nan nan nan nan nan nan nan nan nan nan nan nan nan nan nan nan nan nan nan nan nan nan nan nan nan nan nan nan nan nan nan nan nan nan nan nan nan nan nan nan nan nan nan nan nan nan nan nan nan nan nan nan nan nan nan nan nan nan nan nan nan nan nan nan nan nan nan nan 0 1 1 2 3 3 5 6 7 7 1
nan nan nan nan nan nan nan nan nan nan nan nan nan nan nan nan nan nan nan nan nan nan nan nan nan nan nan nan nan nan nan nan nan nan nan nan nan nan nan nan nan nan nan nan nan nan nan nan nan nan 0 nan nan nan nan nan nan nan nan nan nan nan nan nan nan nan nan nan nan nan nan nan nan nan nan 0 1 1 2 4 4 5 5 7 7 7
nan nan nan nan nan nan nan nan nan nan nan nan nan nan nan nan nan nan nan nan nan nan nan nan nan nan nan nan nan nan nan nan nan nan nan nan nan nan nan nan nan nan nan nan nan nan nan nan nan 0 0 nan nan nan nan nan nan nan nan nan nan nan nan nan nan nan nan nan nan nan nan nan nan nan nan nan nan nan 1 3 3 4 5 6 6 7
nan nan nan nan nan nan nan nan nan nan nan nan nan nan nan nan nan nan nan nan nan nan nan nan nan nan nan nan nan nan nan nan nan nan nan nan nan nan nan nan nan nan nan nan nan nan nan nan nan nan nan nan nan nan nan nan nan nan nan nan nan nan nan nan nan nan nan nan nan nan nan nan nan nan nan nan nan nan nan nan nan 0 2 3 3 6
nan nan nan nan nan nan nan nan nan nan nan nan nan nan nan nan nan nan nan nan nan nan nan nan nan nan nan nan nan nan nan nan nan nan nan nan nan nan nan nan nan nan nan nan nan nan nan nan nan nan nan nan nan nan nan nan nan nan nan nan nan nan nan nan nan nan nan nan nan nan nan nan nan nan nan nan nan nan nan nan nan nan nan nan nan nan
nan nan nan nan nan nan nan nan nan nan nan nan nan nan nan nan nan nan nan nan nan nan nan nan nan nan nan nan nan nan nan nan nan nan nan nan nan nan nan nan nan nan nan 0 0 0 nan nan nan nan 0 nan nan nan nan nan nan nan nan nan nan nan nan nan nan nan nan nan nan nan nan nan nan nan nan nan nan nan nan nan nan nan nan nan nan nan
nan nan nan nan nan nan nan nan nan nan nan nan nan nan nan nan nan nan nan nan nan nan nan nan nan nan nan nan nan nan nan nan nan nan nan nan nan nan nan nan nan nan 0 0 0 1 1 nan nan nan nan nan 0 0 0 nan nan nan 1 nan nan nan nan nan nan nan nan nan nan nan nan nan nan nan nan nan nan nan nan nan nan nan nan nan nan nan
nan nan nan nan nan nan nan nan nan nan nan nan nan nan nan nan nan nan nan nan nan nan nan nan nan nan nan nan nan nan nan nan nan nan nan nan nan nan nan nan nan nan 0 0 0 0 1 1 1 0 nan 0 0 0 nan nan nan nan nan nan nan nan nan nan nan nan nan nan nan nan nan nan nan nan nan nan nan nan nan nan nan nan nan nan nan nan
nan nan nan nan nan nan nan nan nan nan nan nan nan nan nan nan nan nan nan nan nan nan nan nan nan nan nan nan nan nan nan nan nan nan nan nan nan nan nan nan nan 0 1 0 0 0 1 2 2 0 0 0 nan nan nan 0 0 nan nan nan nan nan nan nan nan nan nan nan nan nan nan nan nan nan nan nan nan nan nan nan nan nan nan nan nan nan
nan nan nan nan nan nan nan nan nan nan nan nan nan nan nan nan nan nan nan nan nan nan nan nan nan nan nan nan nan nan nan nan nan nan nan nan nan nan nan nan nan nan 0 1 1 0 0 1 1 0 0 0 nan nan nan nan nan nan nan nan nan nan nan nan nan nan nan nan nan nan nan nan nan nan nan nan nan nan nan nan nan nan nan nan nan nan
nan nan nan nan nan nan nan nan nan nan nan nan nan nan nan nan nan nan nan nan nan nan nan 0 0 nan nan nan nan nan nan nan nan nan nan 1 0 0 nan nan nan nan nan 1 1 0 0 0 0 nan 0 0 nan nan nan nan nan nan nan nan nan nan nan nan nan nan nan nan nan nan nan nan nan nan nan nan nan nan nan nan nan nan nan nan nan nan
nan nan nan nan nan nan nan nan nan nan nan nan nan nan nan nan nan nan nan nan nan nan nan 0 0 nan nan nan nan nan nan nan nan nan nan nan 0 0 nan nan nan nan nan nan nan 0 0 0 0 0 0 0 0 0 nan nan nan nan nan nan nan nan nan nan nan nan nan nan nan nan nan nan nan nan nan nan nan nan nan nan nan nan nan nan nan nan
nan nan nan nan nan nan nan nan nan nan nan nan nan nan nan nan nan nan nan nan nan nan nan 0 0 0 nan nan nan nan nan nan nan nan nan 0 0 0 0 0 0 0 0 nan nan nan nan 0 0 1 0 0 nan nan nan nan nan nan nan nan nan nan nan nan nan nan nan nan nan nan nan nan nan nan nan nan nan nan nan nan nan nan nan nan nan nan
nan nan nan nan nan nan nan nan nan nan nan nan nan nan nan nan nan nan nan nan nan nan 0 0 0 0 nan nan nan nan nan nan nan nan nan nan 0 0 0 1 1 1 2 2 2 1 1 1 1 1 1 nan nan nan nan nan nan nan nan nan nan nan nan nan nan nan nan nan nan nan nan nan nan nan nan nan nan nan nan nan nan nan nan nan nan nan
nan nan nan nan nan nan nan nan nan nan nan nan nan nan nan nan 0 0 nan nan nan nan nan 0 0 0 nan nan nan nan nan nan nan nan nan nan nan nan nan 0 0 0 0 1 1 2 2 1 1 1 0 nan nan nan nan nan nan nan nan nan nan nan nan nan nan nan nan nan nan nan nan nan nan nan nan 0 nan nan nan nan nan nan nan nan nan nan
nan nan nan nan nan nan nan nan nan nan nan nan nan nan nan nan nan nan nan nan nan nan nan 0 0 nan nan nan nan nan nan nan nan nan nan nan nan nan nan nan nan 0 0 0 0 0 nan nan nan nan 2 0 nan nan nan nan nan nan nan nan nan nan nan nan nan nan nan nan nan nan nan nan nan nan 0 0 0 0 nan nan nan nan nan nan nan nan
nan nan nan nan nan nan nan nan nan nan nan nan nan nan nan nan nan nan nan nan nan nan nan nan nan 0 nan nan nan nan nan nan nan nan nan nan nan nan 0 0 0 0 0 nan nan nan nan nan nan nan nan 1 nan nan nan nan nan nan nan nan nan nan nan nan nan nan nan nan nan nan nan nan 0 0 0 nan 0 0 nan nan nan nan nan nan nan nan
CIN
nan -0 0 0 0 0 0 0 0 0 0 0 0 0 0 0 0 0 -0 nan nan nan nan nan nan nan nan nan nan nan nan 0 0 0 0 0 0 0 0 0 0 0 0 0 0 0 0 0 0 0 0 0 0 0 0 0 0 0 0 0 0 0 0 0 0 0 0 0 0 0 0 0 0 0 0 0 0 0 0 0 0 0 0 0 0 0
nan 0 0 0 0 0 0 0 0 0 0 0 0 0 0 0 0 0 -1 -2 -2 nan nan nan nan nan nan nan nan nan nan 0 0 0 0 0 0 0 0 0 0 -0 nan nan nan nan 0 0 0 0 0 0 0 0 0 0 0 0 0 0 0 0 0 0 0 0 0 0 0 0 0 0 0 0 0 0 0 0 0 0 0 0 0 0 0 0
-0 0 0 0 0 0 0 0 0 0 0 0 0 0 0 0 0 0 -1 0 0 -1 nan nan nan -6 -1 -4 nan nan nan nan 0 0 0 nan 0 0 nan nan nan nan nan nan nan 0 0 0 0 0 0 0 -0 -0 nan nan nan nan nan -0 -0 0 0 0 0 0 0 0 0 0 0 0 0 0 0 0 0 0 0 0 0 0 0 0 0 0
nan nan 0 0 0 0 0 0 0 0 0 0 0 0 0 0 0 0 0 nan nan 0 nan nan nan nan -5 -2 nan nan nan nan nan nan -0 0 0 0 0 0 0 0 0 0 0 0 0 0 0 0 0 -0 nan nan nan nan nan nan -0 0 0 0 0 0 0 0 0 0 0 0 0 0 0 0 0 0 0 0 0 0 0 0 0 0 0 0
nan nan 0 0 0 0 0 0 0 0 0 0 0 0 0 0 0 0 nan nan nan nan nan nan nan nan nan nan nan nan nan nan nan nan nan nan 0 0 0 0 0 0 0 0 0 0 0 0 0 0 -0 -0 -0 -0 0 0 0 0 0 0 0 0 0 0 0 0 0 0 0 0 0 0 0 0 0 0 0 0 0 0 0 0 0 0 0 0
nan nan 0 0 0 0 0 0 0 0 0 0 nan nan nan nan nan nan nan nan nan nan nan nan nan nan nan nan nan nan nan nan nan nan nan nan nan nan 0 0 0 0 0 0 0 0 0 0 0 0 0 nan nan nan nan nan nan nan nan nan nan nan 0 0 0 0 0 0 0 0 0 0 0 0 0 0 0 0 0 0 0 0 0 0 0 0
nan nan 0 nan nan 0 0 0 nan nan nan nan nan nan nan nan nan nan nan nan nan nan nan nan nan nan nan nan nan nan nan nan nan nan nan nan nan nan nan nan nan nan 0 0 0 0 nan nan nan nan nan nan nan nan nan nan nan nan nan nan nan nan nan nan nan nan 0 0 0 0 0 0 0 0 0 0 0 0 0 0 0 0 0 0 0 0
nan nan nan nan nan nan nan nan nan nan nan nan nan nan nan nan nan nan nan nan nan nan nan nan nan nan nan nan nan nan nan nan nan nan nan nan nan nan nan nan nan nan nan nan nan nan nan nan nan nan nan nan nan nan nan nan nan nan nan nan nan nan nan nan nan nan nan nan nan nan 0 0 0 0 0 0 0 0 0 0 0 0 0 0 0 0
nan nan nan nan nan nan nan nan nan nan nan nan nan nan nan nan nan nan nan nan nan nan nan nan nan nan nan nan nan nan nan nan nan nan nan nan nan nan nan nan nan nan nan nan nan nan nan nan nan nan nan nan nan nan nan nan nan nan nan nan nan nan nan nan nan nan nan nan nan nan 0 0 0 0 0 0 0 0 0 0 0 0 0 0 0 0
nan nan nan nan nan nan nan nan nan nan nan nan nan nan nan nan nan nan nan nan nan nan nan nan nan nan nan nan nan nan nan nan nan nan nan nan nan nan nan nan nan nan nan nan nan nan nan nan nan nan nan nan nan nan nan nan nan nan nan nan nan nan nan nan nan nan nan nan nan nan 0 0 0 0 0 0 0 0 0 0 0 0 0 0 0 0
nan nan nan nan nan nan nan nan nan nan nan nan nan nan nan nan nan nan nan nan nan nan nan nan nan nan nan nan nan nan nan nan nan nan nan nan nan nan nan nan nan nan nan nan nan nan nan nan nan nan nan nan nan nan nan nan nan nan nan nan nan nan nan nan nan nan nan nan nan nan 0 0 0 0 0 0 0 0 0 0 0 0 0 0 0 0
nan nan nan nan nan nan nan nan nan nan nan nan nan nan nan nan nan nan nan nan nan nan nan nan nan nan nan nan nan nan nan nan nan nan nan nan nan nan nan nan nan nan nan nan nan nan nan nan nan nan nan nan nan nan nan nan nan nan nan nan nan nan nan nan nan nan nan nan nan nan nan 0 0 0 0 0 0 0 0 0 0 0 0 0 0 0
nan nan nan nan nan nan nan nan nan nan nan nan nan nan nan nan nan nan nan nan nan nan nan nan nan nan nan nan nan nan nan nan nan nan nan nan nan nan nan nan nan nan nan nan nan nan nan nan nan nan nan nan nan nan nan nan nan nan nan nan nan nan nan nan nan nan nan nan nan nan nan 0 0 0 0 0 0 0 0 0 0 0 0 0 0 0
nan nan nan nan nan nan nan nan nan nan nan nan nan nan nan nan nan nan nan nan nan nan nan nan nan nan nan nan nan nan nan nan nan nan nan nan nan nan nan nan nan nan nan nan nan nan nan nan nan nan nan nan nan nan nan nan nan nan nan nan nan nan nan nan nan nan 0 0 0 0 0 0 0 0 0 0 0 0 0 0 0 0 0 0 0 0
nan nan nan nan nan nan nan nan nan nan nan nan nan nan nan nan nan nan nan nan nan nan nan nan nan nan nan nan nan nan nan nan nan nan nan nan nan nan nan nan nan nan nan nan nan nan nan nan nan nan nan nan nan nan nan nan nan nan nan nan nan 0 0 0 0 0 0 0 0 0 0 0 0 0 0 0 0 0 0 0 0 0 0 0 0 0
nan nan nan nan nan nan nan nan nan nan nan nan nan nan nan nan nan nan nan nan nan nan nan nan nan nan nan nan nan nan nan nan nan nan nan nan nan nan nan nan nan nan nan nan nan nan nan nan nan nan nan nan nan nan nan nan nan nan nan 0 0 0 0 0 0 0 0 0 0 0 0 0 0 0 0 0 0 0 0 0 0 0 0 0 0 0
nan nan nan nan nan nan nan nan nan nan nan nan nan nan nan nan nan nan nan nan nan nan nan nan nan nan nan nan nan nan nan nan nan nan nan nan nan nan nan nan nan nan nan nan nan nan nan nan nan nan nan nan nan nan nan nan nan nan 0 0 0 0 0 0 0 0 0 0 0 0 0 0 0 0 0 0 0 0 0 0 0 0 0 0 0 0
nan nan nan nan nan nan nan nan nan nan nan nan nan nan nan nan nan nan nan nan nan nan nan nan nan nan nan nan nan nan nan nan nan nan nan nan nan nan nan nan nan nan nan nan nan nan nan nan nan nan nan nan nan nan nan nan nan nan 0 0 0 0 0 0 0 0 0 0 0 0 0 0 0 0 0 0 0 0 0 0 0 0 0 0 0 0
nan nan nan nan nan nan nan nan nan nan nan nan nan nan nan nan nan nan nan nan nan nan nan nan nan nan nan nan nan nan nan nan nan nan nan nan nan nan nan nan nan nan nan nan nan nan nan nan nan nan nan nan nan nan nan 0 0 0 0 0 0 0 0 0 0 0 0 0 0 0 0 0 0 0 0 0 0 0 0 0 0 0 0 0 0 0
nan nan nan nan nan nan nan nan nan nan nan nan nan nan nan nan nan nan nan nan nan nan nan nan nan nan nan nan nan nan nan nan nan nan nan nan nan nan nan nan nan nan nan nan nan nan nan nan nan nan nan nan nan nan 0 0 0 0 0 0 0 0 0 0 0 0 0 0 0 0 0 0 0 0 0 0 0 0 0 0 0 0 0 0 0 0
nan nan nan nan nan nan nan nan nan nan nan nan nan nan nan nan nan nan nan nan nan nan nan nan nan nan nan nan nan nan nan nan nan nan nan nan nan nan nan nan nan nan nan nan nan nan nan nan nan nan nan nan nan nan nan 0 0 0 0 0 0 0 0 0 0 0 0 0 0 0 0 0 0 0 0 0 0 0 0 0 0 0 0 0 0 0
nan nan nan nan nan nan nan nan nan nan nan nan nan nan nan nan nan nan nan nan nan nan nan nan nan nan nan nan nan nan nan nan nan nan nan nan nan nan nan nan nan nan nan nan nan nan nan nan nan nan nan nan nan nan nan nan nan 0 0 0 0 0 0 0 0 0 0 0 0 0 0 0 0 0 0 0 0 0 0 0 0 0 0 0 0 0
nan nan nan nan nan nan nan nan nan nan nan nan nan nan nan nan nan nan nan nan nan nan nan nan nan nan nan nan nan nan nan nan nan nan nan nan nan nan nan nan nan nan nan nan nan nan nan nan nan nan nan nan nan nan nan nan nan nan 0 0 0 0 0 0 0 0 0 0 0 0 0 0 0 0 0 0 0 0 0 0 0 0 0 0 0 0
nan nan nan nan nan nan nan nan nan nan nan nan nan nan nan nan nan nan nan nan nan nan nan nan nan nan nan nan nan nan nan nan nan nan nan nan nan nan nan nan nan nan nan nan nan nan nan nan nan nan nan nan nan nan nan nan nan nan nan 0 0 0 0 0 0 0 0 0 0 0 0 0 0 0 0 0 0 0 0 0 0 0 0 0 0 0
nan nan nan nan nan nan nan nan nan nan nan nan nan nan -18 -13 -4 -4 -10 -13 -13 nan nan nan nan nan nan nan nan nan nan nan nan nan nan nan nan nan nan nan nan nan nan nan nan nan nan nan nan nan nan nan nan nan nan nan nan nan nan 0 0 0 0 0 0 0 0 0 0 0 0 0 0 0 0 0 0 0 0 0 0 0 0 0 0 0
nan nan nan nan nan nan nan nan nan nan nan nan -11 -11 -8 -3 -1 -1 -5 -5 -5 -3 -11 nan nan nan nan nan nan nan nan nan nan nan nan nan nan nan nan nan nan nan nan nan nan nan nan nan nan nan nan nan nan nan nan nan nan nan nan nan nan 0 0 0 0 0 0 0 0 0 0 0 0 0 0 0 0 0 0 0 0 0 0 0 0 0
nan nan nan nan nan nan nan nan 0 0 0 0 -0 -0 -1 -9 -1 -1 0 nan nan -7 nan nan nan nan nan nan nan nan nan nan nan nan nan nan nan nan nan nan nan nan nan nan nan nan nan nan nan nan nan nan nan nan nan nan nan nan nan nan nan nan nan nan nan 0 0 0 0 0 0 0 0 0 0 0 0 0 0 0 0 0 0 0 0 0
nan nan nan nan nan nan nan 0 0 0 0 0 0 0 0 -0 -1 -1 nan nan nan nan nan nan nan nan nan nan nan nan nan nan nan nan nan nan nan nan nan nan nan nan nan nan nan nan nan nan nan nan nan nan nan nan nan nan nan nan nan nan nan 0 0 0 0 0 nan 0 0 0 0 0 0 0 0 0 0 0 0 0 0 0 0 0 0 -7
nan nan nan nan nan nan nan 0 0 0 0 0 0 0 0 -2 nan nan nan nan nan nan nan nan nan nan nan nan nan nan nan nan nan nan nan nan nan nan nan nan nan nan nan nan nan nan nan nan nan nan nan nan nan nan nan nan nan nan nan nan nan 0 0 0 0 0 0 0 0 0 0 0 0 0 0 0 0 0 0 0 0 0 0 -3 -3 nan
-4 nan nan nan nan nan 0 nan 0 0 0 0 0 0 0 nan nan nan nan nan nan nan nan nan nan nan nan nan nan nan nan nan nan nan nan nan nan nan nan nan nan nan nan nan nan nan nan nan nan nan nan nan nan nan nan nan nan nan nan nan nan nan nan 0 0 0 0 0 0 0 0 0 0 0 0 0 0 0 0 0 0 0 -2 nan nan nan
-4 -8 nan nan nan nan nan nan nan nan 0 0 0 0 -0 nan nan nan nan nan nan nan nan nan nan nan nan nan nan nan nan nan nan nan nan nan nan nan nan nan nan nan nan nan nan nan nan nan nan nan nan nan nan nan nan nan nan nan nan nan nan nan nan nan nan 0 0 0 0 0 0 0 0 0 0 0 0 0 0 0 0 0 nan nan nan nan
nan nan nan nan nan nan nan nan nan nan nan nan nan nan nan nan nan nan nan nan nan nan nan nan nan nan nan nan nan nan nan nan nan nan nan nan nan nan nan nan nan nan nan nan nan nan nan nan nan nan nan nan nan nan nan nan nan nan nan nan nan nan nan nan nan nan nan 0 0 0 0 0 0 0 0 0 0 0 0 0 0 0 nan nan nan nan
nan nan nan nan nan nan nan nan nan nan nan nan nan nan nan nan nan nan nan nan nan nan nan nan nan nan nan nan nan nan nan nan nan nan nan nan nan nan nan nan nan nan nan nan nan nan nan nan nan nan nan nan nan nan nan nan nan nan nan nan nan nan nan nan nan nan nan nan nan nan 0 0 0 0 0 0 0 0 0 0 0 0 0 nan nan nan
nan nan nan nan nan nan nan nan nan nan nan nan nan nan nan nan nan nan nan nan nan nan nan nan nan nan nan nan nan nan nan nan nan nan nan nan nan nan nan nan nan nan nan nan nan nan nan nan nan nan nan nan nan nan nan nan nan nan nan nan nan nan nan nan nan nan nan nan nan nan nan nan 0 0 0 0 0 0 0 0 0 0 0 nan nan nan
nan nan nan nan nan nan nan nan nan nan nan nan nan nan nan nan nan nan nan nan nan nan nan nan nan nan nan nan nan nan nan nan nan nan nan nan nan nan nan nan nan nan nan nan nan nan nan nan nan nan nan nan nan nan nan nan nan nan nan nan nan nan nan nan nan nan nan nan nan nan nan nan nan nan nan -1 0 0 0 0 0 0 0 0 0 -3
nan nan nan nan nan nan nan nan nan nan nan nan nan nan nan nan nan nan nan nan nan nan nan nan nan nan nan nan nan nan nan nan nan nan nan nan nan nan nan nan nan nan nan nan nan nan nan nan nan nan -0 nan nan nan nan nan nan nan nan nan nan nan nan nan nan nan nan nan nan nan nan nan nan nan nan 0 0 0 0 0 0 0 0 0 0 0
nan nan nan nan nan nan nan nan nan nan nan nan nan nan nan nan nan nan nan nan nan nan nan nan nan nan nan nan nan nan nan nan nan nan nan nan nan nan nan nan nan nan nan nan nan nan nan nan nan -1 -1 nan nan nan nan nan nan nan nan nan nan nan nan nan nan nan nan nan nan nan nan nan nan nan nan nan nan nan 0 0 0 0 0 0 0 0
nan nan nan nan nan nan nan nan nan nan nan nan nan nan nan nan nan nan nan nan nan nan nan nan nan nan nan nan nan nan nan nan nan nan nan nan nan nan nan nan nan nan nan nan nan nan nan nan nan nan nan nan nan nan nan nan nan nan nan nan nan nan nan nan nan nan nan nan nan nan nan nan nan nan nan nan nan nan nan nan nan -0 0 0 0 0
nan nan nan nan nan nan nan nan nan nan nan nan nan nan nan nan nan nan nan nan nan nan nan nan nan nan nan nan nan nan nan nan nan nan nan nan nan nan nan nan nan nan nan nan nan nan nan nan nan nan nan nan nan nan nan nan nan nan nan nan nan nan nan nan nan nan nan nan nan nan nan nan nan nan nan nan nan nan nan nan nan nan nan nan nan nan
nan nan nan nan nan nan nan nan nan nan nan nan nan nan nan nan nan nan nan nan nan nan nan nan nan nan nan nan nan nan nan nan nan nan nan nan nan nan nan nan nan nan nan -10 -10 -6 nan nan nan nan -1 nan nan nan nan nan nan nan nan nan nan nan nan nan nan nan nan nan nan nan nan nan nan nan nan nan nan nan nan nan nan nan nan nan nan nan
nan nan nan nan nan nan nan nan nan nan nan nan nan nan nan nan nan nan nan nan nan nan nan nan nan nan nan nan nan nan nan nan nan nan nan nan nan nan nan nan nan nan -3 -4 -4 -5 -4 nan nan nan nan nan -2 -2 -3 nan nan nan 0 nan nan nan nan nan nan nan nan nan nan nan nan nan nan nan nan nan nan nan nan nan nan nan nan nan nan nan
nan nan nan nan nan nan nan nan nan nan nan nan nan nan nan nan nan nan nan nan nan nan nan nan nan nan nan nan nan nan nan nan nan nan nan nan nan nan nan nan nan nan -2 -3 -3 -4 -4 -3 -3 -2 nan -4 -3 -3 nan nan nan nan nan nan nan nan nan nan nan nan nan nan nan nan nan nan nan nan nan nan nan nan nan nan nan nan nan nan nan nan
nan nan nan nan nan nan nan nan nan nan nan nan nan nan nan nan nan nan nan nan nan nan nan nan nan nan nan nan nan nan nan nan nan nan nan nan nan nan nan nan nan -4 -2 -2 -2 -3 -4 -2 -2 -4 -4 -5 nan nan nan -4 -4 nan nan nan nan nan nan nan nan nan nan nan nan nan nan nan nan nan nan nan nan nan nan nan nan nan nan nan nan nan
nan nan nan nan nan nan nan nan nan nan nan nan nan nan nan nan nan nan nan nan nan nan nan nan nan nan nan nan nan nan nan nan nan nan nan nan nan nan nan nan nan nan -4 -2 -2 -2 -4 -3 -3 -5 -6 -6 nan nan nan nan nan nan nan nan nan nan nan nan nan nan nan nan nan nan nan nan nan nan nan nan nan nan nan nan nan nan nan nan nan nan
nan nan nan nan nan nan nan nan nan nan nan nan nan nan nan nan nan nan nan nan nan nan nan -3 -3 nan nan nan nan nan nan nan nan nan nan -8 -5 -5 nan nan nan nan nan -4 -4 -4 -3 -2 -2 nan -7 -7 nan nan nan nan nan nan nan nan nan nan nan nan nan nan nan nan nan nan nan nan nan nan nan nan nan nan nan nan nan nan nan nan nan nan
nan nan nan nan nan nan nan nan nan nan nan nan nan nan nan nan nan nan nan nan nan nan nan -3 -3 nan nan nan nan nan nan nan nan nan nan nan -13 -13 nan nan nan nan nan nan nan -10 -5 -3 -3 -4 -5 -5 -6 -6 nan nan nan nan nan nan nan nan nan nan nan nan nan nan nan nan nan nan nan nan nan nan nan nan nan nan nan nan nan nan nan nan
nan nan nan nan nan nan nan nan nan nan nan nan nan nan nan nan nan nan nan nan nan nan nan -2 -2 -1 nan nan nan nan nan nan nan nan nan -12 -15 -15 -11 -8 -8 -6 -8 nan nan nan nan -9 -9 -6 -4 -3 nan nan nan nan nan nan nan nan nan nan nan nan nan nan nan nan nan nan nan nan nan nan nan nan nan nan nan nan nan nan nan nan nan nan
nan nan nan nan nan nan nan nan nan nan nan nan nan nan nan nan nan nan nan nan nan nan -0 -2 -2 -2 nan nan nan nan nan nan nan nan nan nan -12 -12 -11 -10 -10 -7 -6 -5 -5 -6 -8 -14 -14 -12 -6 nan nan nan nan nan nan nan nan nan nan nan nan nan nan nan nan nan nan nan nan nan nan nan nan nan nan nan nan nan nan nan nan nan nan nan
nan nan nan nan nan nan nan nan nan nan nan nan nan nan nan nan -2 -2 nan nan nan nan nan -2 -2 -1 nan nan nan nan nan nan nan nan nan nan nan nan nan -12 -12 -10 -10 -8 -8 -7 -8 -15 -15 -11 -7 nan nan nan nan nan nan nan nan nan nan nan nan nan nan nan nan nan nan nan nan nan nan nan nan -7 nan nan nan nan nan nan nan nan nan nan
nan nan nan nan nan nan nan nan nan nan nan nan nan nan nan nan nan nan nan nan nan nan nan -2 -2 nan nan nan nan nan nan nan nan nan nan nan nan nan nan nan nan -8 -8 -9 -9 -8 nan nan nan nan -7 -4 nan nan nan nan nan nan nan nan nan nan nan nan nan nan nan nan nan nan nan nan nan nan -13 -7 -4 -4 nan nan nan nan nan nan nan nan
nan nan nan nan nan nan nan nan nan nan nan nan nan nan nan nan nan nan nan nan nan nan nan nan nan -2 nan nan nan nan nan nan nan nan nan nan nan nan -7 -9 -9 -7 -4 nan nan nan nan nan nan nan nan -0 nan nan nan nan nan nan nan nan nan nan nan nan nan nan nan nan nan nan nan nan -16 -16 -12 nan -6 -6 nan nan nan nan nan nan nan nan
Wind_Speed
2 2 2 2 2 1 2 2 2 2 1 1 1 1 1 0 0 1 1 0 0 0 1 1 0 1 1 4 5 5 5 5 5 5 4 4 4 3 3 3 3 3 3 3 3 3 2 2 2 3 3 3 3 4 4 4 5 5 5 6 6 6 7 7 8 8 9 9 9 9 9 9 10 10 10 10 10 10 10 10 9 9 9 9 9 9
2 2 2 2 2 1 1 2 2 2 2 2 2 2 2 2 1 1 0 1 1 1 1 1 1 1 1 3 4 5 5 5 5 5 5 5 4 4 4 4 4 3 3 3 3 3 3 3 3 3 3 3 3 3 3 4 4 4 5 5 6 6 7 7 8 8 8 9 9 9 9 9 9 9 9 9 9 9 9 9 9 8 8 8 8 9
2 2 2 1 1 1 1 2 2 2 2 2 2 3 3 3 3 2 2 2 2 1 1 1 0 0 1 3 4 5 5 5 5 5 5 5 4 4 4 4 4 3 3 3 3 3 2 2 2 2 2 2 2 3 3 3 4 4 5 5 6 6 7 7 8 8 9 9 9 9 9 9 9 8 8 8 8 8 8 8 8 8 8 8 8 8
2 2 2 1 0 1 1 2 2 2 2 2 2 2 2 2 2 2 2 3 3 3 3 3 2 1 1 2 4 4 5 4 4 4 4 4 4 3 3 3 3 3 3 3 2 2 2 2 1 1 1 2 2 3 3 4 4 5 5 6 7 7 8 8 8 9 9 9 9 9 9 9 9 9 9 9 9 8 8 8 8 8 8 8 8 8
2 1 1 0 0 1 1 1 1 1 1 1 1 1 1 1 1 1 1 2 2 3 2 2 2 2 1 2 3 3 3 3 3 3 3 3 3 3 3 2 2 2 2 2 2 2 2 2 1 1 2 2 3 3 4 5 5 6 7 7 8 8 8 9 9 9 9 9 9 9 9 9 9 9 9 9 9 9 9 8 8 8 8 7 8 8
2 1 0 0 0 0 1 1 1 1 1 1 1 1 0 0 0 0 0 0 1 1 1 1 1 1 0 2 2 2 1 1 0 0 1 1 1 2 2 2 2 2 2 2 2 2 2 2 2 3 3 4 4 5 5 6 7 7 8 8 9 9 9 10 10 10 10 10 10 10 10 10 10 9 9 9 9 9 9 9 9 8 8 8 8 8
1 1 1 0 0 0 0 0 1 1 1 1 1 1 1 0 0 1 0 0 0 0 0 1 1 0 1 2 2 2 2 2 2 2 2 1 1 1 2 2 3 3 3 3 3 3 4 4 4 4 5 5 6 6 7 7 8 8 9 9 10 10 10 10 11 11 11 11 11 11 11 10 10 10 10 10 9 9 9 9 9 9 9 9 9 9
1 1 1 1 1 1 1 0 0 1 1 2 1 1 0 1 1 1 1 0 0 0 0 0 0 0 1 1 1 1 0 1 1 1 2 2 1 1 2 3 3 3 4 4 4 4 4 5 5 5 6 6 7 7 8 8 9 9 9 10 10 11 11 11 11 11 11 12 11 11 11 11 11 11 11 10 10 9 9 9 9 9 10 10 10 10
1 1 1 0 0 0 0 1 1 0 1 1 2 2 1 1 0 1 1 1 0 0 1 1 1 1 1 1 1 1 2 2 1 1 1 1 2 2 2 2 3 3 3 3 4 4 4 5 5 6 6 7 7 8 8 8 9 9 10 10 11 11 11 12 12 12 12 12 12 12 12 12 12 11 11 11 10 10 9 9 9 10 10 11 11 11
1 1 1 1 0 0 1 0 1 1 0 1 1 2 2 2 2 1 1 1 1 1 0 1 1 1 1 1 2 2 2 1 1 1 1 1 2 2 2 2 2 2 3 3 3 4 5 5 6 6 7 7 7 8 8 9 9 9 10 10 11 11 12 12 12 12 12 12 12 12 12 12 12 12 12 11 11 11 10 10 10 10 11 11 12 12
2 2 1 1 1 1 1 0 0 1 0 1 1 1 1 1 2 2 2 1 0 1 1 1 1 1 1 1 2 2 2 1 1 0 1 1 1 1 1 2 2 2 3 3 4 5 5 6 6 6 7 7 8 8 8 9 9 9 10 10 11 11 12 12 12 12 12 12 12 12 12 12 12 12 12 12 12 11 11 11 11 11 11 12 12 12
1 1 1 1 1 1 1 0 0 1 1 1 1 1 1 1 1 2 2 2 1 1 1 1 1 0 1 1 1 2 2 2 2 1 0 1 2 2 2 2 2 3 3 4 4 5 6 6 6 6 7 7 8 8 8 8 8 9 9 10 10 10 11 11 11 11 11 11 11 12 12 12 12 12 12 12 12 12 12 12 12 12 12 12 13 13
0 0 0 0 1 1 0 0 1 1 1 1 1 1 1 2 1 2 2 2 2 2 2 2 1 0 1 0 1 1 1 2 2 2 2 1 1 1 1 1 2 2 2 3 3 4 5 6 6 6 7 7 7 7 7 7 7 8 8 9 9 9 10 10 10 10 10 11 11 11 11 11 11 12 12 12 12 13 13 12 12 12 13 13 13 13
0 0 0 0 0 0 0 0 0 0 1 1 2 2 2 1 1 1 2 2 1 1 1 2 2 1 1 1 1 1 1 2 2 2 2 2 2 1 1 2 2 2 2 2 2 3 5 5 5 5 6 7 7 7 6 7 7 8 8 9 9 9 9 9 9 10 10 10 10 10 10 11 11 11 11 12 12 12 12 12 12 13 13 13 13 13
0 0 1 0 0 0 1 1 1 1 2 2 2 1 1 1 1 2 2 2 2 2 1 2 2 1 1 1 1 1 1 1 2 2 2 2 2 2 1 2 2 2 2 2 2 3 4 4 3 3 4 5 5 5 5 6 7 9 9 9 10 10 9 9 9 9 9 10 10 10 10 10 10 10 10 11 11 11 11 12 12 12 13 13 13 13
1 1 1 1 0 0 1 1 1 1 1 1 1 1 2 2 2 2 2 2 2 2 2 2 2 2 1 1 1 2 2 2 2 2 2 2 2 2 2 2 2 2 2 2 2 3 3 3 3 3 3 5 5 5 5 6 7 9 9 10 10 10 10 10 10 10 10 10 10 10 10 10 10 10 10 10 10 10 11 11 11 12 12 12 12 12
1 1 1 1 0 0 1 1 1 1 1 0 0 1 1 1 2 2 2 2 2 2 2 2 2 2 1 1 1 1 2 2 2 2 2 3 3 2 2 2 2 2 2 2 2 3 3 3 3 3 3 5 5 6 6 7 8 9 10 10 10 10 10 10 10 10 10 10 10 10 10 10 10 10 10 10 10 10 10 10 11 11 11 11 11 11
0 1 1 1 1 1 1 0 0 0 1 1 0 0 1 1 1 1 1 2 2 2 2 2 1 2 2 1 1 1 1 1 1 2 2 3 3 2 2 1 1 2 2 2 2 2 3 3 3 3 4 6 7 7 7 8 9 9 10 10 10 10 10 10 10 10 10 10 10 10 10 10 10 10 10 10 10 10 10 10 10 10 11 11 11 11
0 0 1 1 1 1 0 0 0 1 1 1 1 1 1 1 1 1 1 1 1 1 2 2 2 2 3 2 1 1 1 1 1 2 2 3 3 2 2 1 1 2 2 2 2 3 3 3 3 5 6 7 8 8 8 9 9 9 10 10 10 10 10 10 11 11 11 11 11 11 11 11 11 11 11 11 11 11 11 11 10 10 10 10 10 11
1 0 0 1 1 1 1 0 1 2 2 2 2 2 2 2 1 1 1 1 1 1 1 2 2 2 2 2 1 1 1 1 1 2 2 2 3 3 2 2 2 2 2 2 2 2 3 2 3 4 6 7 8 8 8 8 9 9 9 10 10 10 10 10 10 11 11 11 11 11 11 11 11 11 11 11 11 11 11 11 11 11 11 11 11 11
1 1 1 1 1 1 1 1 2 3 3 3 2 2 2 2 2 2 2 2 2 1 1 2 2 2 2 2 2 2 2 2 2 2 2 2 2 2 2 1 1 2 2 2 2 2 2 2 2 3 5 7 8 8 8 8 8 8 9 9 9 9 9 10 10 10 10 11 11 11 11 11 11 11 11 11 11 11 11 11 11 11 11 11 11 11
1 1 1 1 1 1 1 2 3 4 3 2 1 2 2 2 2 2 2 2 2 2 2 2 2 3 3 3 3 3 2 2 1 1 1 2 2 2 2 1 1 2 2 2 2 2 2 2 2 3 5 7 8 7 7 7 7 8 8 8 9 8 8 8 9 9 9 9 9 9 10 10 10 10 10 11 11 11 11 11 11 11 12 11 11 11
2 1 1 2 1 1 2 2 2 3 2 1 1 1 2 2 2 2 2 2 2 3 3 3 3 3 3 4 4 4 3 2 1 1 1 2 2 2 2 1 1 2 2 2 2 2 2 3 3 4 5 7 7 6 6 6 6 7 8 8 8 7 7 7 7 7 7 7 7 7 7 8 8 8 8 9 9 9 10 10 10 10 10 10 10 11
2 2 2 2 2 2 2 2 2 2 2 1 1 2 2 1 2 2 2 2 3 3 3 3 3 4 4 4 4 3 2 2 2 1 1 2 2 2 2 2 2 2 2 2 2 2 3 3 3 3 4 5 5 4 4 4 6 7 7 7 7 7 7 6 7 7 7 7 7 7 7 7 7 7 7 7 7 7 7 8 8 8 8 8 9 9
3 3 3 3 3 3 2 2 2 2 2 1 1 1 1 2 2 3 2 3 3 3 3 3 4 3 3 3 3 2 2 2 2 2 1 1 2 2 2 2 2 2 2 2 2 2 3 3 3 3 3 3 2 2 3 4 5 6 7 7 7 7 7 7 7 7 7 8 8 8 8 7 7 7 7 7 7 7 7 7 7 7 8 8 8 8
4 4 3 3 3 2 2 2 2 2 1 1 1 1 2 2 3 3 3 3 3 4 3 3 3 3 2 2 2 1 1 2 2 2 2 1 2 2 2 2 2 2 2 2 2 2 3 3 3 3 3 2 1 2 3 4 5 6 7 7 8 8 8 8 8 8 8 8 9 9 9 9 9 9 9 9 8 8 8 8 9 9 9 9 9 9
3 3 3 3 2 2 2 3 3 3 4 4 4 3 3 3 3 3 4 3 3 3 3 3 3 2 2 2 2 1 0 2 2 2 2 1 1 2 2 2 2 2 2 2 2 3 4 4 3 3 2 2 1 2 3 5 6 7 8 8 8 9 9 9 9 9 9 9 9 10 10 10 10 10 10 10 10 10 10 10 10 10 10 9 9 8
2 3 3 4 4 4 4 4 5 6 6 7 7 6 4 3 3 4 4 3 3 3 2 3 3 2 2 2 2 2 2 1 1 2 1 1 1 2 2 2 2 2 2 2 3 3 4 4 3 3 2 1 1 2 4 5 6 7 8 8 9 9 9 9 9 9 9 9 10 10 10 11 11 11 11 11 11 11 11 11 11 10 10 8 7 5
4 4 5 5 5 6 6 6 6 7 8 8 8 7 5 3 3 4 4 3 3 3 3 3 3 3 2 2 2 2 3 2 0 1 1 0 1 2 2 2 2 2 2 2 2 3 3 3 2 1 1 1 1 2 3 5 5 6 7 8 8 8 8 8 8 9 9 9 10 10 11 11 11 11 12 12 12 12 12 12 11 10 8 6 5 4
4 4 5 6 6 6 6 6 6 7 8 9 9 8 6 4 3 3 3 3 3 3 3 3 3 3 2 2 2 2 2 1 1 2 1 0 1 2 2 2 2 2 2 2 2 2 2 2 1 1 1 1 2 2 2 3 3 4 4 5 6 7 7 7 8 8 9 9 10 10 11 11 11 12 12 12 12 12 12 12 11 8 5 4 4 4
3 3 3 3 4 4 4 4 4 5 6 7 7 6 5 4 3 3 3 3 3 3 3 3 3 3 2 2 2 2 1 1 2 2 1 0 1 1 2 2 2 2 2 2 2 2 2 1 1 1 1 1 2 2 3 3 3 3 2 3 4 5 6 7 7 8 8 9 10 10 11 11 11 11 12 12 12 12 12 12 11 8 4 4 4 4
3 3 2 2 2 2 2 2 2 3 3 4 4 4 4 4 4 3 3 3 2 2 3 3 3 3 3 2 2 2 2 0 2 2 1 0 1 1 1 2 2 2 1 1 1 1 2 2 1 2 2 2 3 3 3 3 3 3 3 2 2 3 5 6 7 7 8 8 9 10 10 10 11 11 11 12 12 12 12 13 11 9 5 4 4 4
3 3 3 3 2 2 2 2 2 2 2 2 3 3 3 3 4 4 3 2 2 2 3 3 3 3 3 3 3 2 2 1 1 2 2 0 1 1 1 1 2 2 2 2 2 2 2 2 2 2 2 2 2 3 3 3 3 3 3 2 2 3 4 5 5 6 6 7 7 8 9 9 10 10 11 11 11 12 12 12 12 10 7 5 4 4
3 3 3 3 3 3 3 3 3 2 3 2 3 3 2 3 3 3 3 3 2 3 3 3 3 3 3 3 2 2 2 2 1 2 2 0 1 1 1 1 2 2 2 2 2 2 2 2 2 3 3 2 2 2 3 3 3 3 2 2 2 2 3 3 4 4 5 5 4 5 6 6 7 8 9 9 10 10 11 11 12 11 10 7 5 4
3 4 4 3 3 3 3 3 3 3 2 3 3 2 2 2 2 2 3 3 3 3 3 3 3 3 3 2 2 2 2 1 2 3 3 1 1 1 1 1 2 2 2 2 2 2 2 3 3 4 3 3 3 3 2 3 3 2 2 2 2 2 3 3 3 3 4 3 3 3 3 4 4 5 6 7 8 8 9 10 11 11 12 10 9 6
3 3 3 3 3 3 3 3 3 2 2 2 2 2 2 2 2 2 2 2 3 3 3 3 3 3 3 2 2 2 3 2 2 3 3 2 2 1 1 1 2 2 2 2 2 2 3 3 4 4 5 4 3 3 2 2 2 2 3 3 3 3 3 3 3 3 3 3 3 3 3 3 3 3 4 6 7 8 8 9 10 11 12 12 12 10
3 3 3 3 3 3 3 2 2 2 2 2 2 2 2 2 2 2 2 2 2 2 3 3 3 4 4 3 3 3 3 3 3 3 3 3 2 2 2 2 2 2 2 2 2 3 3 3 4 4 4 4 3 3 2 2 3 3 3 3 3 3 3 4 4 3 3 4 4 3 3 3 3 3 4 6 7 7 8 9 10 10 12 12 13 13
3 3 3 3 2 2 2 2 2 2 2 2 2 1 2 2 2 2 2 2 2 2 2 3 3 4 5 5 5 4 4 4 4 4 4 3 2 2 2 2 2 3 2 2 3 3 3 4 4 4 3 3 4 4 4 3 3 3 3 3 3 3 3 4 4 4 3 4 4 4 4 4 3 3 4 4 4 4 5 5 7 8 10 10 12 13
3 3 3 3 2 2 2 2 2 2 1 1 1 2 2 2 3 3 3 2 3 3 3 3 3 4 5 5 5 6 5 5 5 4 3 3 2 2 3 3 3 3 3 3 3 3 3 3 4 4 4 4 4 4 4 3 3 3 3 3 3 3 3 3 3 3 3 3 4 4 4 4 3 3 3 3 3 3 3 3 4 5 6 5 6 9
3 3 3 3 2 2 2 2 2 1 1 2 2 2 2 2 3 3 3 3 3 3 4 4 4 4 4 5 5 6 6 5 5 5 4 3 3 3 3 3 4 4 4 3 3 3 4 4 4 5 5 4 4 4 4 3 3 4 4 4 3 3 3 3 3 3 3 3 4 4 4 3 3 3 3 3 3 3 3 3 3 4 4 3 3 4
3 2 2 2 2 2 2 2 1 1 2 2 2 2 2 2 2 2 3 3 3 3 3 3 3 3 4 4 4 5 5 5 5 5 4 4 4 4 3 4 4 4 4 4 4 4 4 4 5 5 5 5 5 5 5 5 5 6 6 5 4 4 4 4 4 4 3 3 4 4 4 4 4 4 4 4 3 3 3 3 3 3 3 3 3 3
4 3 2 2 2 2 1 1 2 2 2 2 2 2 2 2 2 2 2 2 2 2 2 2 2 3 3 3 3 4 4 5 5 5 5 5 5 5 4 4 4 4 4 4 4 4 4 4 5 5 5 4 4 5 5 5 5 6 6 5 5 6 5 5 4 3 3 3 3 4 4 4 3 3 4 4 4 4 4 4 4 4 4 3 3 3
3 3 2 2 2 2 2 2 2 2 2 2 3 3 3 2 2 2 2 2 2 2 2 2 2 2 3 3 3 3 3 4 5 5 5 5 5 5 5 5 5 4 4 4 4 4 4 5 5 5 5 4 4 5 6 6 6 6 6 6 6 5 4 3 2 2 2 3 3 3 3 3 3 3 4 4 3 3 4 5 6 6 6 4 4 4
3 2 2 2 2 2 2 2 2 2 3 3 3 3 3 3 3 3 2 2 2 2 2 2 2 3 4 4 4 3 3 3 4 5 5 6 6 6 6 5 5 5 5 4 4 3 3 4 5 5 5 4 5 5 6 6 6 5 4 5 5 5 4 3 3 3 3 3 3 3 3 3 3 3 3 3 3 3 3 4 4 4 5 5 5 5
2 2 2 2 2 2 3 3 3 3 3 3 3 3 3 3 3 3 2 2 2 2 3 3 3 3 4 4 4 3 3 3 3 3 4 6 8 8 7 6 5 5 6 5 4 4 4 4 4 4 4 4 5 6 6 6 6 6 6 6 6 5 5 4 4 4 4 4 4 4 4 3 3 3 3 3 3 3 4 4 4 4 4 4 4 5
2 2 2 2 2 3 3 3 3 3 3 3 3 3 3 3 2 2 2 2 3 3 3 3 3 3 3 3 3 3 3 3 2 2 3 4 5 7 7 6 6 6 5 5 5 5 5 5 4 4 4 5 5 6 6 6 6 6 6 6 5 5 5 4 4 4 4 4 4 4 4 3 3 3 3 3 4 4 4 4 4 5 5 4 4 5
3 3 3 2 2 3 3 3 3 3 3 3 3 3 3 2 2 2 2 3 3 3 3 4 4 4 4 4 3 3 3 3 3 2 2 3 3 4 5 6 6 7 6 5 5 6 6 6 5 5 5 5 6 6 6 6 6 6 6 5 4 4 4 4 4 4 4 4 3 3 3 3 3 3 4 4 4 4 4 4 4 4 4 4 4 4
3 3 3 3 3 3 3 3 2 2 3 3 3 3 3 3 3 3 3 3 3 4 4 4 4 5 5 5 4 4 4 4 4 3 3 2 2 3 3 4 4 5 5 6 6 6 6 6 6 6 6 6 6 7 7 6 5 5 5 4 4 4 5 4 4 3 3 3 3 3 2 3 3 4 5 5 5 4 4 4 4 4 4 4 4 4
3 3 3 3 3 3 3 2 3 3 3 3 3 3 3 3 4 4 3 3 3 4 4 4 5 5 5 5 4 4 5 4 4 3 3 3 2 2 3 3 3 3 3 4 5 5 5 6 7 8 8 8 8 8 8 7 6 5 4 4 4 4 5 4 4 3 3 4 3 3 3 3 4 5 5 6 6 6 5 5 5 5 5 4 5 5
3 3 3 3 3 3 3 3 3 3 3 3 3 3 2 3 3 3 3 3 3 4 4 5 5 5 5 4 4 4 4 4 4 3 3 3 3 3 3 3 3 3 3 3 3 4 4 5 6 9 11 12 11 10 8 7 6 5 4 4 4 4 4 4 4 4 4 4 4 4 4 4 4 4 4 5 6 7 7 6 5 5 5 4 5 5
3 3 3 3 3 3 3 3 3 3 3 3 3 3 3 2 3 3 3 3 4 4 5 5 5 5 5 5 5 4 4 4 4 4 3 3 3 3 3 3 3 3 3 3 3 3 3 3 4 5 9 13 15 14 9 7 6 5 5 5 4 4 4 4 4 4 4 4 4 4 4 4 4 4 4 5 6 6 7 6 6 5 5 4 4 5
Wind_Direction
70 64 46 22 18 34 55 47 33 11 359 18 29 28 28 55 93 110 131 158 170 159 154 146 135 90 66 51 44 37 34 35 37 38 37 36 36 36 38 37 34 31 28 26 22 19 17 17 19 22 23 23 17 12 6 2 358 354 350 343 339 335 331 328 326 324 322 320 320 320 322 324 326 327 327 327 326 324 322 321 321 320 319 318 316 315
98 90 66 32 24 29 45 45 37 20 356 1 1 355 344 339 339 349 343 245 237 232 222 186 175 149 95 70 52 41 37 35 35 36 36 35 34 32 29 26 21 16 13 11 10 10 10 12 16 20 22 19 14 8 3 358 352 347 341 337 333 330 327 325 323 322 320 317 316 315 314 315 315 315 314 314 314 312 311 309 308 308 307 307 307 306
122 110 90 54 34 25 18 29 28 21 3 358 353 346 341 337 341 346 345 331 320 312 312 316 306 89 81 77 58 45 38 33 30 30 31 31 30 27 22 16 10 3 358 356 355 357 2 8 13 14 14 7 2 356 352 348 343 338 335 332 330 329 328 327 326 325 323 321 320 318 316 315 313 309 307 304 301 298 296 294 293 294 295 297 298 298
105 94 86 76 59 45 23 6 2 1 359 350 340 335 337 334 342 351 346 339 336 335 337 339 343 355 33 69 65 55 41 31 26 24 23 23 21 18 11 3 356 347 338 337 338 343 350 2 7 3 355 350 346 344 343 341 339 337 336 335 333 332 332 332 331 331 331 328 326 325 322 319 316 312 308 304 299 295 290 287 284 283 285 287 290 291
85 73 57 355 16 51 38 359 339 329 327 314 303 305 317 326 347 352 337 331 331 332 336 340 343 350 23 72 76 70 54 37 25 20 15 16 12 7 359 354 346 339 332 334 338 344 354 3 3 355 348 346 345 344 344 343 341 340 339 337 335 334 334 333 332 331 331 329 327 325 322 319 316 314 312 309 307 303 300 295 291 287 286 285 285 286
90 83 55 312 340 21 30 347 318 302 301 281 263 251 253 309 282 230 228 276 314 320 323 326 321 320 61 90 98 104 112 116 110 49 18 17 12 6 2 359 359 359 2 8 12 14 16 14 7 358 352 350 348 346 344 343 341 339 337 335 333 331 329 327 326 325 324 323 321 319 317 314 313 311 311 310 310 309 307 305 302 299 294 290 288 287
103 111 167 221 235 107 40 309 302 302 306 293 275 236 172 183 217 225 211 175 187 242 274 278 273 260 115 111 125 145 166 178 185 185 181 172 129 43 23 19 20 21 23 25 25 21 15 10 2 355 350 348 345 342 339 337 335 334 332 329 327 324 322 320 319 317 316 315 313 312 310 309 308 306 306 306 307 307 308 308 306 303 300 296 294 292
128 142 182 191 193 183 182 177 294 325 329 322 315 300 205 185 188 193 183 185 200 309 315 289 267 242 103 106 122 140 147 183 191 189 175 164 128 77 46 32 27 24 22 19 15 9 1 354 348 343 340 337 335 332 331 330 328 326 325 322 320 317 315 313 311 309 308 307 306 305 304 303 302 301 301 301 301 302 302 303 302 301 299 297 295 295
140 153 174 186 241 242 203 149 118 45 353 334 326 322 319 298 225 185 174 164 144 34 350 337 330 346 41 48 41 29 18 10 5 3 8 23 38 42 38 23 17 13 8 360 351 344 337 332 328 326 324 323 322 322 321 321 320 318 317 314 312 309 307 305 304 302 301 300 299 298 298 297 297 296 296 295 295 295 295 295 294 294 293 293 293 293
158 164 176 163 190 298 290 135 101 92 30 319 313 317 321 326 324 307 227 166 146 122 41 355 349 352 5 9 10 7 4 3 10 28 24 23 20 15 9 347 340 336 325 321 316 311 308 307 306 307 308 310 311 311 313 313 312 311 310 308 306 304 302 300 298 297 296 295 294 293 293 292 292 292 292 291 290 289 289 289 289 288 288 288 289 290
171 172 185 168 164 183 263 279 105 115 192 244 249 253 276 337 338 329 312 302 129 117 92 45 12 353 345 345 348 350 345 330 311 184 152 167 190 256 260 266 274 279 283 287 286 285 286 288 290 293 298 301 304 306 308 308 309 308 307 305 303 301 299 297 296 294 292 291 290 290 289 289 289 288 288 287 287 286 285 285 285 285 285 285 286 286
165 160 188 166 160 163 199 195 171 173 212 236 234 218 154 48 7 339 321 323 339 6 9 2 2 11 357 343 339 340 336 321 312 301 240 210 215 225 242 253 259 266 276 279 280 279 280 282 286 291 296 300 303 305 307 308 309 309 308 306 304 301 299 296 294 292 290 289 288 287 286 286 286 285 285 284 283 282 282 282 282 283 283 283 283 283
103 115 184 177 162 153 170 199 198 198 212 270 322 358 35 34 13 338 311 311 327 348 347 321 305 235 119 59 5 342 329 319 315 314 308 289 273 271 284 284 290 294 296 292 292 290 287 290 293 296 300 302 303 306 308 312 313 313 312 309 306 302 299 296 293 290 288 287 285 284 284 283 282 282 281 281 280 279 279 279 279 280 280 280 280 280
72 89 228 199 159 111 56 332 311 332 34 23 14 8 9 359 341 316 296 298 317 340 333 301 285 251 132 98 55 1 332 320 312 309 304 299 300 305 313 303 302 303 305 301 297 297 300 303 303 303 302 302 303 308 316 318 319 318 315 311 307 304 300 297 294 291 289 286 284 283 281 281 280 279 278 277 277 276 276 276 276 276 277 277 277 277
18 332 293 271 135 80 45 358 353 11 37 33 19 355 332 325 320 316 306 313 323 330 315 296 284 266 122 90 54 14 343 326 316 310 308 305 307 313 311 298 293 296 301 299 299 302 307 309 307 303 303 302 307 317 328 324 319 315 313 309 306 304 302 300 298 295 292 289 287 285 283 282 281 279 279 277 276 276 275 274 274 274 273 274 274 274
355 335 316 304 329 73 61 21 9 13 33 32 12 343 325 329 334 336 329 327 327 323 315 309 301 293 126 95 59 16 354 341 330 321 315 309 308 308 309 301 298 299 304 304 306 307 310 308 305 302 301 304 311 317 321 316 310 307 306 304 303 302 302 301 299 297 295 293 291 290 288 286 285 285 284 283 282 280 278 277 276 274 273 273 273 272
344 330 322 311 324 64 78 50 14 358 358 357 344 339 334 337 340 340 332 325 320 317 313 319 314 307 298 120 95 46 1 354 338 323 312 303 299 301 311 310 305 302 305 303 302 301 301 301 303 303 302 305 308 310 308 303 300 299 298 298 298 298 297 296 295 295 294 292 292 291 289 289 289 288 289 289 288 286 285 283 280 278 276 275 274 273
324 320 314 306 330 31 68 58 352 312 300 305 324 339 330 332 326 320 314 311 313 317 321 321 316 307 300 318 90 90 26 3 337 316 303 294 291 291 297 291 286 287 292 292 292 292 294 297 300 301 299 300 300 299 296 294 293 292 292 292 292 292 292 291 290 290 289 288 288 287 286 286 286 287 288 288 288 288 287 286 285 283 280 279 277 275
255 285 296 310 334 6 22 328 325 335 340 353 354 345 322 310 288 277 276 294 309 321 325 317 309 300 293 310 16 93 82 20 336 311 299 292 290 289 290 279 274 279 286 287 290 291 293 294 294 292 291 290 289 289 288 288 289 290 290 290 290 289 288 287 286 285 284 283 282 282 281 281 281 281 281 282 282 283 283 284 284 284 282 280 278 276
298 291 308 340 341 335 312 4 37 36 24 14 1 342 323 317 308 300 298 312 318 314 304 292 285 282 283 295 312 36 61 15 339 310 294 292 291 292 294 295 295 293 290 288 290 290 289 288 286 284 284 283 283 284 285 288 291 292 293 292 290 288 286 284 283 281 280 279 278 277 277 276 276 276 276 276 275 276 276 278 279 279 279 279 277 276
316 329 33 22 358 333 330 36 56 56 44 22 357 331 316 322 323 325 335 337 330 315 297 282 278 281 291 298 306 322 350 346 329 310 297 294 291 289 289 295 297 293 288 286 286 285 284 283 280 279 280 282 283 285 288 292 295 296 296 294 291 288 285 282 281 279 277 276 275 274 272 272 271 271 270 270 269 269 270 270 271 272 272 272 273 273
321 344 34 36 16 351 353 37 67 76 71 42 352 323 326 336 338 337 341 337 329 318 307 300 299 300 304 297 296 297 307 299 291 290 295 290 286 282 281 285 283 281 281 282 285 289 291 289 285 282 281 282 284 285 289 293 297 298 297 294 292 289 286 283 282 282 279 278 277 276 274 274 272 270 269 268 267 266 266 266 266 266 266 268 269 269
321 341 19 35 32 16 9 27 58 78 83 56 352 342 357 351 340 332 329 324 316 309 303 299 296 293 288 279 273 268 255 236 228 239 269 278 283 287 295 293 281 274 275 283 293 300 303 296 290 284 282 281 282 283 286 292 295 296 296 295 293 292 290 291 293 295 296 295 293 291 289 287 284 281 278 275 273 271 269 268 268 268 269 270 270 271
342 355 18 35 37 31 22 23 34 45 52 31 11 3 1 335 314 304 301 300 296 293 289 285 281 275 266 259 254 245 216 185 178 194 238 265 279 288 302 301 293 285 282 289 300 305 302 294 287 282 278 278 277 275 278 284 289 291 293 293 293 293 294 297 301 305 306 305 305 304 300 298 296 293 289 287 283 280 279 277 276 276 277 277 277 277
3 10 21 34 35 30 20 16 18 24 28 18 1 339 313 293 287 286 284 280 276 273 270 270 272 272 270 266 259 237 148 148 161 186 228 261 278 286 294 296 293 291 291 299 305 304 297 291 286 281 276 269 253 240 251 269 279 284 287 289 290 292 293 296 298 300 300 299 298 296 294 292 289 287 285 283 282 281 281 279 279 279 279 279 280 279
4 8 14 21 22 16 358 347 343 340 324 305 293 292 293 296 298 297 290 278 270 266 265 269 274 280 288 291 290 279 114 145 170 195 220 256 281 288 289 291 292 294 297 303 304 301 293 289 287 284 281 267 233 222 239 257 268 275 279 282 284 286 288 290 291 291 291 289 288 286 284 282 280 277 275 274 273 273 274 274 274 275 276 277 277 277
345 344 345 342 332 316 301 293 288 284 278 275 278 286 297 305 303 296 287 281 278 280 283 286 289 292 294 291 292 291 133 169 181 192 201 239 273 282 287 293 300 302 303 303 302 297 291 287 283 280 278 282 263 247 255 262 266 270 272 275 278 280 282 284 285 285 284 283 281 280 278 275 273 271 269 268 267 267 267 268 269 270 271 272 273 274
293 294 295 291 286 282 279 276 273 271 269 271 276 282 289 291 287 280 275 279 285 290 290 288 288 289 291 289 294 301 307 243 188 163 165 210 262 277 284 293 302 308 311 309 302 293 285 275 266 260 263 282 301 290 277 274 271 270 272 274 276 278 280 281 282 282 282 281 279 277 275 272 270 268 267 265 264 263 263 264 264 266 267 267 266 265
235 246 255 259 261 262 262 263 264 265 266 268 271 273 274 270 267 266 270 278 284 285 281 279 279 281 284 287 292 295 291 282 201 113 122 199 263 274 281 292 310 326 331 319 306 292 275 258 244 236 250 301 306 295 286 282 279 276 279 280 282 282 282 282 281 281 280 279 278 276 274 271 269 267 265 264 263 262 261 261 262 263 264 264 262 260
229 231 236 240 242 244 245 249 254 259 263 266 267 267 264 258 254 257 263 270 273 273 272 273 274 276 280 286 288 283 271 270 90 91 102 212 272 279 291 309 333 353 356 334 317 305 292 270 235 133 76 320 299 289 286 287 286 286 287 288 289 289 287 285 283 281 280 278 276 274 272 270 268 266 264 263 262 261 261 260 260 261 261 260 260 259
271 261 252 245 241 238 238 242 249 257 263 266 267 265 260 252 248 249 254 257 259 260 263 266 268 271 274 279 280 278 273 92 97 98 102 221 272 287 309 327 341 353 359 342 325 316 310 308 343 45 32 328 309 301 297 295 293 292 291 292 292 292 292 290 288 285 282 279 276 273 271 268 266 265 263 262 261 260 259 258 258 257 257 256 257 258
288 289 289 286 279 270 261 257 256 258 262 264 264 261 256 251 247 246 248 248 249 251 254 258 261 263 262 261 261 268 283 30 101 113 126 211 272 292 322 328 328 326 329 312 297 293 299 301 318 337 339 321 311 304 302 299 296 292 290 291 292 295 297 297 294 290 287 283 279 276 272 269 266 264 262 261 260 259 258 257 255 254 252 252 253 256
287 289 289 288 284 279 270 264 258 255 255 255 255 254 252 250 247 245 245 244 243 245 246 250 254 256 257 254 255 259 272 292 92 111 122 185 278 294 317 312 303 299 296 282 267 263 268 281 294 305 309 305 302 300 300 297 294 291 290 293 294 297 299 299 297 293 291 287 285 281 277 272 267 264 261 259 257 256 255 254 253 251 248 248 250 253
286 284 282 280 276 271 264 258 254 252 251 251 249 247 245 245 244 242 240 238 238 238 239 243 247 251 256 258 257 259 262 273 43 70 78 22 307 295 298 291 288 290 291 285 279 275 273 281 292 300 303 303 302 301 298 292 291 291 294 297 294 292 292 292 290 288 289 287 286 282 279 273 269 265 260 257 255 254 252 252 250 248 246 245 245 248
281 279 277 274 270 265 261 256 254 252 252 250 247 243 239 239 238 236 232 229 229 231 235 240 245 251 256 262 264 266 267 289 43 53 42 15 335 309 296 284 283 286 292 291 292 293 289 292 297 301 304 304 302 296 288 285 290 297 305 301 294 287 283 285 286 286 287 285 280 276 273 270 269 266 262 259 256 254 252 251 249 248 246 245 245 245
277 276 273 270 266 262 259 257 257 258 258 254 247 240 235 236 235 233 228 224 226 229 234 240 245 251 257 262 266 270 277 306 1 23 20 6 346 319 299 288 291 296 297 294 293 292 291 293 295 296 296 296 295 293 287 291 301 310 311 304 298 292 289 289 289 287 286 283 279 276 272 272 272 272 272 268 265 261 257 254 252 250 249 247 246 246
275 272 269 265 262 259 258 258 258 260 262 261 255 245 235 236 238 238 232 222 222 230 239 246 251 254 255 260 264 271 281 299 319 336 346 349 342 318 291 287 289 291 290 287 288 289 289 291 291 291 289 286 288 292 299 307 311 310 302 299 296 294 291 288 283 278 275 273 272 272 271 272 274 276 278 275 272 268 263 259 256 253 251 250 249 248
270 268 265 262 259 258 257 256 256 259 262 266 266 262 257 252 252 253 247 228 221 225 239 248 255 258 258 261 263 267 275 283 292 302 317 323 315 296 281 280 281 280 275 275 278 281 284 285 287 288 286 285 287 292 301 305 306 301 296 293 291 287 283 278 273 269 267 270 272 273 273 272 271 271 272 271 270 267 264 261 258 256 254 252 251 250
261 262 263 263 265 264 262 260 261 263 267 273 279 282 282 276 271 267 261 245 231 225 229 238 248 256 257 257 257 257 258 261 264 268 275 272 268 264 265 268 270 270 269 268 268 269 270 273 276 280 285 288 291 293 296 297 297 296 297 295 289 282 274 272 272 273 275 277 280 280 278 274 268 263 261 261 259 259 258 259 257 256 254 254 254 254
260 261 263 267 269 271 271 274 278 282 285 286 285 284 280 274 268 263 258 251 242 234 229 231 239 247 251 251 252 252 250 246 243 242 240 232 227 231 243 253 260 264 265 263 260 259 259 262 267 271 276 282 287 290 292 290 290 292 297 297 293 287 283 284 284 283 282 280 279 277 276 270 264 260 257 255 254 252 251 251 253 252 249 246 249 255
271 271 271 273 276 277 278 282 287 289 289 286 281 272 264 259 257 256 253 249 245 240 237 235 239 245 249 249 249 250 248 242 236 230 221 207 204 209 225 241 252 258 260 259 256 253 253 258 263 267 270 275 280 283 283 284 286 289 292 292 292 292 292 288 282 276 270 266 264 263 265 265 263 260 258 255 251 247 244 244 247 250 249 241 237 239
275 275 276 281 285 291 296 298 294 286 279 270 262 256 251 248 247 247 248 247 247 246 247 248 251 255 259 257 254 251 247 242 235 226 213 196 191 195 210 229 242 249 253 254 253 250 249 253 258 263 267 273 277 281 281 281 283 285 286 287 289 291 290 281 272 262 258 259 260 261 264 267 267 265 263 259 255 250 246 243 245 248 250 246 241 238
274 275 280 290 299 307 312 304 293 280 268 258 251 247 244 240 240 242 245 250 256 261 266 266 266 267 269 268 265 259 251 243 237 229 218 195 187 190 204 218 230 239 245 248 250 250 249 250 253 257 262 267 271 274 278 280 281 280 279 280 285 289 290 284 280 278 277 277 278 277 276 275 274 272 270 268 265 261 256 252 251 250 248 246 243 240
274 280 288 294 296 296 290 279 269 260 253 248 246 244 240 235 234 236 240 247 255 261 266 265 264 264 264 265 265 265 259 243 232 225 220 205 196 194 202 212 223 231 237 241 246 250 253 251 251 253 256 259 263 267 271 275 277 277 274 273 273 273 273 279 285 289 288 285 282 279 276 274 274 274 274 272 270 267 262 257 253 250 247 242 239 237
267 273 279 278 275 270 263 259 257 254 252 249 247 244 240 236 231 229 229 238 246 251 254 255 257 257 257 258 260 262 263 251 233 219 215 211 207 203 202 208 217 226 233 236 240 245 250 254 256 256 257 257 259 262 266 270 273 275 274 271 268 266 262 267 272 276 277 276 275 273 270 271 273 275 276 274 270 268 264 260 258 255 251 245 240 236
248 253 257 257 256 256 256 256 256 255 254 252 250 248 245 237 232 226 225 232 240 245 245 245 248 251 256 259 262 264 267 262 248 229 214 209 203 201 201 206 213 221 228 232 235 239 243 249 255 261 265 263 261 260 260 264 268 271 273 271 269 268 267 266 265 265 267 270 272 272 272 274 277 278 277 276 274 270 265 262 259 257 256 252 248 243
230 235 241 243 245 247 247 248 249 250 252 251 251 249 247 241 234 228 225 229 235 240 242 241 243 247 253 256 259 261 264 264 260 251 235 218 207 201 202 207 212 217 223 227 231 234 238 241 245 250 258 262 263 262 260 260 262 265 268 269 269 269 269 267 265 263 264 266 268 271 275 280 281 279 277 277 275 273 270 267 263 261 260 258 256 253
228 232 237 240 243 246 247 247 248 249 252 253 253 252 249 242 235 231 229 228 232 237 240 240 242 245 249 250 252 252 254 256 257 257 255 247 235 222 214 213 215 219 223 228 232 235 238 238 238 239 244 250 257 261 262 260 258 259 262 265 267 268 268 267 265 264 264 264 265 266 268 273 276 277 279 279 277 275 273 272 270 268 267 265 263 261
230 233 237 239 242 245 247 249 250 252 254 256 258 258 255 250 242 238 233 229 231 234 238 240 243 245 248 248 247 247 248 249 251 250 250 249 248 245 239 234 232 233 236 239 241 244 247 245 240 237 236 239 245 252 258 257 256 255 258 259 261 263 265 265 264 262 262 262 261 258 257 260 265 268 273 275 275 275 274 273 271 270 268 266 264 263
230 233 234 236 238 241 243 245 248 251 254 257 260 262 263 258 249 241 233 230 230 232 235 239 242 246 248 248 247 245 244 244 244 243 241 239 238 238 238 236 237 241 248 250 252 253 255 252 244 236 230 228 230 236 247 251 253 253 253 253 254 255 259 261 261 257 254 257 255 253 252 254 255 256 259 265 269 272 273 272 269 267 265 263 262 261
230 230 229 231 232 235 238 239 242 245 250 253 258 262 265 264 260 252 241 234 232 231 233 235 239 242 246 248 248 246 244 243 242 241 238 235 233 233 232 229 228 233 241 248 253 255 257 260 256 244 230 223 220 220 228 236 242 247 250 249 248 248 251 255 256 255 252 253 252 251 249 251 252 251 251 257 264 269 271 271 270 268 265 263 262 262